| time (UTC) | temp F | wind direction | speed MPH | gust MPH | rain 1hr in | rain 24hr in | rain mn in | humidity % | barometer mb |
| 20260902223009 | 70 | 52 | 3.0 | 5.0 | 0.00 | 0.00 | 0.00 | 16 | 993.0 |
| 20260902212508 | 72 | 350 | 2.0 | 3.0 | 0.00 | 0.00 | 0.00 | 11 | 994.0 |
| 20260902211006 | 75 | 211 | 2.0 | 6.0 | 0.00 | 0.00 | 0.00 | 10 | 992.9 |
| 20260902160009 | 72 | 116 | 1.0 | 1.0 | 0.00 | 0.00 | 0.00 | 100 | 994.6 |
| 20260902145004 | 73 | 98 | 2.0 | 2.0 | 0.00 | 0.00 | 0.00 | 1 | 994.0 |
| 20260902144510 | 73 | 118 | 2.0 | 2.0 | 0.00 | 0.00 | 0.00 | 1 | 994.5 |
| 20260902135509 | 66 | 191 | 1.0 | 2.0 | 0.00 | 0.00 | 0.00 | 2 | 993.5 |
| 20260902132506 | 64 | 155 | 1.0 | 1.0 | 0.00 | 0.00 | 0.00 | 14 | 993.7 |
| 20260902121504 | 62 | 194 | 3.0 | 3.0 | 0.00 | 0.00 | 0.00 | 22 | 992.2 |
| 20260902072007 | 63 | 204 | 4.0 | 4.0 | 0.00 | 0.00 | 0.00 | 5 | 993.5 |
| 20260902065504 | 63 | 194 | 7.0 | 8.0 | 0.00 | 0.00 | 0.00 | 6 | 993.4 |
| 20260902044504 | 62 | 170 | 5.0 | 5.0 | 0.00 | 0.00 | 0.00 | 28 | 993.4 |
| 20260902034503 | 65 | 156 | 4.0 | 4.0 | 0.00 | 0.00 | 0.00 | 17 | 994.0 |
| 20260902031006 | 65 | 156 | 4.0 | 4.0 | 0.00 | 0.00 | 0.00 | 19 | 992.3 |
| 20260902020504 | 66 | 115 | 2.0 | 3.0 | 0.00 | 0.00 | 0.00 | 11 | 992.3 |
| 20260902020003 | 65 | 162 | 1.0 | 2.0 | 0.00 | 0.00 | 0.00 | 15 | 991.9 |
| 20260902014007 | 62 | 353 | 2.0 | 3.0 | 0.00 | 0.00 | 0.00 | 27 | 992.1 |
| 20260902013506 | 62 | 37 | 2.0 | 3.0 | 0.00 | 0.00 | 0.00 | 35 | 991.5 |
| 20260902005007 | 65 | 357 | 2.0 | 2.0 | 0.00 | 0.00 | 0.00 | 27 | 992.5 |
| 20260902003505 | 68 | 11 | 2.0 | 2.0 | 0.00 | 0.00 | 0.00 | 28 | 992.9 |
| 20260902002003 | 68 | 353 | 3.0 | 4.0 | 0.00 | 0.00 | 0.00 | 23 | 992.6 |
| 20260901235005 | 73 | 58 | 2.0 | 2.0 | 0.00 | 0.00 | 0.00 | 16 | 992.6 |
| 20260901233504 | 78 | 74 | 2.0 | 2.0 | 0.00 | 0.00 | 0.00 | 13 | 992.4 |
| 20260901231507 | 72 | 73 | 2.0 | 2.0 | 0.00 | 0.00 | 0.00 | 19 | 991.6 |
| 20260901230005 | 68 | 352 | 3.0 | 5.0 | 0.00 | 0.00 | 0.00 | 17 | 991.8 |
| 20260901225505 | 70 | 75 | 1.0 | 2.0 | 0.00 | 0.00 | 0.00 | 19 | 992.3 |